Ludington, MI

5:51 PM EDT on October 15, 2019 (GMT -0400)
Mason County

Weather History for KLDM - May, 2019

Change the Weather History Date:

Wednesday, May 1, 2019

  Actual Average Record
Temperature  
Mean Temperature 46 °F -  
Max Temperature 52 °F 61 °F 85 °F (1951)
Min Temperature 40 °F 40 °F 23 °F (1978)
Degree Days  
Heating Degree Days 19    
Moisture  
Dew Point 43 °F    
Average Humidity 91    
Maximum Humidity 97    
Minimum Humidity 76    
Precipitation  
Precipitation 0.30 in - - ()
Sea Level Pressure  
Sea Level Pressure 29.96 in    
Wind  
Wind Speed 9 mph (NE)    
Max Wind Speed 16 mph    
Max Gust Speed 24 mph    
Visibility 9 miles    
Events Rain    
Averages and records for this station are not official NWS values.
T = Trace of Precipitation, MM = Missing Value Source: NWS Daily Summary

Daily Weather History Graph

Daily Weather History Graph

Search for Another Location

Airport or City:

Astronomy

May. 01, 2019 Rise Set
Actual Time 6:37 AM EDT 8:48 PM EDT
Civil Twilight 6:06 AM EDT 9:20 PM EDT
Nautical Twilight 5:27 AM EDT 9:59 PM EDT
Astronomical Twilight 4:43 AM EDT 10:43 PM EDT
Moon 5:32 AM EDT (5/1) 5:26 PM EDT (5/1)
Length of Visible Light 15h 14m
Length of Day
14h 10m
Waning Crescent, 11% of the Moon is Illuminated
May 1
Waning Crescent
May 4
New
May 11
First Quarter
May 18
Full
May 26
Last Quarter

Hourly Weather History & Observations

Time (EDT) Temp. Windchill Dew Point Humidity Pressure Visibility Wind Dir Wind Speed Gust Speed Precip Events Conditions
12:15 AM 40.5 °F 32.5 °F 38.5 °F 93% 30.17 in 10.0 mi East 15.0 mph 18.4 mph N/A   Overcast
5:19 AM 43.3 °F 35.8 °F 41.9 °F 95% 29.96 in 7.0 mi East 16.1 mph 20.7 mph 0.03 in Rain Light Rain
5:35 AM 43.7 °F 36.6 °F 42.1 °F 94% 29.95 in 7.0 mi East 15.0 mph 19.6 mph 0.08 in Rain Light Rain
5:55 AM 43.7 °F 36.6 °F 42.1 °F 94% 29.94 in 10.0 mi East 15.0 mph 20.7 mph 0.10 in Rain Light Rain
6:15 AM 43.9 °F 37.2 °F 42.3 °F 94% 29.92 in 7.0 mi East 13.8 mph 21.9 mph 0.01 in Rain Rain
6:16 AM 43.9 °F 36.8 °F 42.3 °F 94% 29.92 in 7.0 mi ESE 15.0 mph 21.9 mph 0.01 in Rain Rain
6:35 AM 44.1 °F 37.1 °F 42.3 °F 93% 29.91 in 10.0 mi East 15.0 mph 21.9 mph 0.02 in Rain Light Rain
6:36 AM 44.1 °F 37.1 °F 42.3 °F 93% 29.91 in 10.0 mi East 15.0 mph 21.9 mph 0.02 in Rain Light Rain
6:55 AM 44.2 °F 37.6 °F 42.4 °F 93% 29.90 in 10.0 mi East 13.8 mph 20.7 mph 0.02 in Rain Light Rain
7:15 AM 44.6 °F 37.4 °F 42.8 °F 93% 29.89 in 7.0 mi East 16.1 mph 21.9 mph N/A Rain Rain
7:35 AM 44.6 °F 37.4 °F 42.8 °F 93% 29.87 in 7.0 mi East 16.1 mph 24.2 mph 0.01 in Rain Light Rain
7:55 AM 44.6 °F 38.4 °F 42.8 °F 93% 29.87 in 10.0 mi East 12.7 mph 18.4 mph 0.01 in   Light Drizzle
7:56 AM 44.6 °F 37.8 °F 42.8 °F 93% 29.87 in 10.0 mi East 15.0 mph 18.4 mph 0.01 in   Light Drizzle
8:15 AM 44.8 °F 38.7 °F 43.0 °F 93% 29.87 in 10.0 mi ESE 12.7 mph 20.7 mph 0.01 in Rain Rain
8:16 AM 44.8 °F 38.7 °F 43.0 °F 93% 29.87 in 10.0 mi ESE 12.7 mph 20.7 mph 0.01 in Rain Rain
8:35 AM 45.0 °F 39.7 °F 43.0 °F 93% 29.87 in 10.0 mi ESE 10.4 mph - 0.01 in Rain Light Rain
8:55 AM 45.0 °F 39.7 °F 43.0 °F 93% 29.87 in 10.0 mi East 10.4 mph - 0.01 in   Overcast
9:15 AM 44.8 °F 39.9 °F 43.0 °F 93% 29.87 in 10.0 mi East 9.2 mph - 0.01 in   Drizzle
9:35 AM 44.8 °F 40.4 °F 43.5 °F 95% 29.86 in 5.0 mi East 8.1 mph - 0.02 in Rain Heavy Rain
9:55 AM 45.0 °F 40.6 °F 43.7 °F 95% 29.85 in 4.0 mi East 8.1 mph - 0.04 in Rain Light Rain
9:56 AM 45.0 °F 41.2 °F 43.7 °F 95% 29.85 in 4.0 mi ENE 6.9 mph - 0.04 in Rain Rain
10:15 AM 45.0 °F 40.6 °F 43.7 °F 95% 29.84 in 2.5 mi ENE 8.1 mph - N/A Rain Rain
10:16 AM 45.0 °F 41.2 °F 43.7 °F 95% 29.84 in 2.5 mi ENE 6.9 mph - N/A Rain Rain
10:35 AM 44.8 °F 41.0 °F 43.7 °F 96% 29.84 in 2.5 mi ENE 6.9 mph - 0.02 in Rain Rain
10:55 AM 45.0 °F 42.6 °F 43.9 °F 96% 29.86 in 4.0 mi NE 4.6 mph - 0.03 in Rain Heavy Rain
11:15 AM 45.1 °F 42.8 °F 44.2 °F 97% 29.86 in 3.0 mi NE 4.6 mph - 0.02 in Rain Heavy Rain
11:35 AM 45.5 °F 44.2 °F 44.6 °F 97% 29.87 in 3.0 mi North 3.5 mph - 0.03 in Rain Rain
11:36 AM 45.5 °F - 44.6 °F 97% 29.87 in 3.0 mi Calm Calm - 0.03 in Rain Rain
11:55 AM 45.9 °F 43.6 °F 45.0 °F 97% 29.88 in 4.0 mi North 4.6 mph - 0.05 in Rain Rain
11:56 AM 45.9 °F 42.9 °F 45.0 °F 97% 29.88 in 4.0 mi NNE 5.8 mph - 0.06 in Rain Rain
12:15 PM 45.9 °F 41.2 °F 45.0 °F 97% 29.86 in 5.0 mi ENE 9.2 mph - 0.02 in Rain Rain
12:35 PM 46.6 °F - 45.5 °F 96% 29.86 in 10.0 mi ENE 8.1 mph - 0.03 in Rain Rain
12:55 PM 47.1 °F - 45.7 °F 95% 29.85 in 10.0 mi ENE 6.9 mph - 0.03 in Rain Rain
1:15 PM 47.3 °F - 45.3 °F 93% 29.90 in 10.0 mi NNE 3.5 mph - N/A   Light Drizzle
1:16 PM 47.3 °F - 45.3 °F 93% 29.90 in 10.0 mi Calm Calm - N/A   Light Drizzle
1:35 PM 47.3 °F - 45.5 °F 93% 29.90 in 10.0 mi ENE 4.6 mph - N/A   Overcast
1:36 PM 47.3 °F - 45.5 °F 93% 29.89 in 10.0 mi NE 3.5 mph - N/A   Overcast
1:55 PM 47.5 °F - 45.5 °F 93% 29.89 in 10.0 mi NE 3.5 mph - N/A   Overcast
1:56 PM 47.5 °F - 45.7 °F 93% 29.89 in 10.0 mi NE 3.5 mph - N/A   Overcast
2:15 PM 48.2 °F - 46.0 °F 92% 29.90 in 10.0 mi ENE 5.8 mph - N/A   Overcast
2:35 PM 48.4 °F - 46.2 °F 92% 29.91 in 5.0 mi East 3.5 mph - N/A   Overcast
2:55 PM 49.1 °F - 46.4 °F 90% 29.92 in 10.0 mi Calm Calm - N/A   Overcast
2:56 PM 49.1 °F - 46.4 °F 90% 29.92 in 10.0 mi Calm Calm - N/A   Overcast
3:15 PM 49.3 °F - 46.0 °F 89% 29.93 in 10.0 mi Calm Calm - N/A   Overcast
3:16 PM 49.3 °F - 46.2 °F 89% 29.93 in 10.0 mi Calm Calm - N/A   Overcast
3:35 PM 50.9 °F - 47.5 °F 88% 29.94 in 10.0 mi WSW 3.5 mph - N/A   Overcast
3:55 PM 52.0 °F - 48.0 °F 86% 29.95 in 10.0 mi WSW 4.6 mph - N/A   Overcast
4:15 PM 52.7 °F - 47.8 °F 84% 29.96 in 10.0 mi West 8.1 mph - N/A   Overcast
4:35 PM 51.3 °F - 46.6 °F 84% 29.97 in 10.0 mi West 8.1 mph - N/A   Overcast
4:36 PM 51.1 °F - 46.4 °F 84% 29.97 in 10.0 mi West 8.1 mph - N/A   Overcast
4:55 PM 50.4 °F - 45.7 °F 84% 29.97 in 10.0 mi West 6.9 mph - N/A   Overcast
5:15 PM 49.8 °F - 44.6 °F 82% 29.99 in 10.0 mi NW 6.9 mph - N/A   Overcast
5:35 PM 50.7 °F - 43.5 °F 76% 29.99 in 10.0 mi WNW 8.1 mph - N/A   Overcast
5:55 PM 50.0 °F - 43.5 °F 78% 30.00 in 10.0 mi West 6.9 mph - N/A   Overcast
6:15 PM 48.6 °F - 43.2 °F 82% 30.01 in 10.0 mi West 6.9 mph - N/A   Overcast
6:16 PM 48.7 °F - 43.3 °F 82% 30.01 in 10.0 mi West 8.1 mph - N/A   Overcast
6:35 PM 47.3 °F - 42.1 °F 82% 30.02 in 10.0 mi West 6.9 mph - N/A   Overcast
6:55 PM 47.3 °F - 42.4 °F 83% 30.02 in 10.0 mi West 3.5 mph - N/A   Overcast
7:15 PM 46.4 °F 43.5 °F 42.1 °F 85% 30.03 in 10.0 mi West 5.8 mph - N/A   Overcast
7:35 PM 45.3 °F 43.0 °F 41.2 °F 85% 30.04 in 10.0 mi West 4.6 mph - N/A   Overcast
7:36 PM 45.1 °F 43.7 °F 40.8 °F 85% 30.04 in 10.0 mi West 3.5 mph - N/A   Overcast
7:55 PM 42.1 °F 40.2 °F 39.0 °F 89% 30.05 in 10.0 mi West 3.5 mph - N/A   Overcast
7:56 PM 42.1 °F 40.2 °F 39.0 °F 89% 30.05 in 10.0 mi West 3.5 mph - N/A   Overcast
8:15 PM 41.0 °F 37.1 °F 38.5 °F 91% 30.06 in 10.0 mi WNW 5.8 mph - N/A   Overcast
8:35 PM 40.5 °F 36.5 °F 38.1 °F 91% 30.07 in 10.0 mi NW 5.8 mph - N/A   Overcast
8:36 PM 40.5 °F 36.5 °F 38.1 °F 91% 30.07 in 10.0 mi WNW 5.8 mph - N/A   Overcast
8:55 PM 40.1 °F - 37.8 °F 91% 30.07 in 10.0 mi Calm Calm - N/A   Overcast
8:56 PM 40.1 °F - 37.8 °F 91% 30.07 in 10.0 mi Calm Calm - N/A   Overcast
9:15 PM 40.1 °F 38.0 °F 37.9 °F 92% 30.08 in 10.0 mi West 3.5 mph - N/A   Overcast
9:16 PM 40.1 °F 38.0 °F 37.9 °F 92% 30.08 in 10.0 mi West 3.5 mph - N/A   Overcast
9:35 PM 40.1 °F - 37.9 °F 92% 30.09 in 10.0 mi Calm Calm - N/A   Overcast
9:55 PM 40.1 °F - 38.1 °F 93% 30.09 in 10.0 mi Calm Calm - N/A   Overcast
10:15 PM 40.5 °F - 38.3 °F 92% 30.09 in 10.0 mi Calm Calm - N/A   Overcast
10:16 PM 40.5 °F - 38.3 °F 92% 30.09 in 10.0 mi Calm Calm - N/A   Overcast
10:35 PM 40.1 °F - 38.1 °F 93% 30.09 in 10.0 mi Calm Calm - N/A   Overcast
10:36 PM 40.1 °F - 38.1 °F 93% 30.09 in 10.0 mi Calm Calm - N/A   Overcast
10:55 PM 40.1 °F - 37.9 °F 92% 30.09 in 10.0 mi Calm Calm - N/A   Overcast
11:15 PM 40.1 °F - 37.6 °F 91% 30.08 in 10.0 mi Calm Calm - N/A   Overcast
11:35 PM 40.1 °F - 37.8 °F 91% 30.09 in 10.0 mi Calm Calm - N/A   Overcast
11:36 PM 40.1 °F - 37.8 °F 91% 30.09 in 10.0 mi Calm Calm - N/A   Overcast
11:55 PM 40.1 °F - 37.6 °F 91% 30.10 in 10.0 mi Calm Calm - N/A   Overcast
11:56 PM 40.1 °F - 37.6 °F 91% 30.10 in 10.0 mi Calm Calm - N/A   Overcast